Saint David, ME

9:11 AM EST on February 25, 2017 (GMT -0500)
Northern Aroostook Regional

Weather History for KFVE - August, 2014

Change the Weather History Date:

Thursday, August 28, 2014

  Actual Average Record
Temperature  
Mean Temperature 54 °F 60 °F  
Max Temperature 62 °F 70 °F 82 °F (1999)
Min Temperature 46 °F 51 °F 41 °F (2002)
Degree Days  
Heating Degree Days 11    
Month to date heating degree days 68  
Since 1 July heating degree days 118  
Cooling Degree Days 0    
Month to date cooling degree days 30  
Year to date cooling degree days 130  
Growing Degree Days 4 (Base 50)    
Moisture  
Dew Point 52 °F    
Average Humidity 87    
Maximum Humidity 97    
Minimum Humidity 72    
Precipitation  
Precipitation 0.03 in 0.14 in 1.38 in (2011)
Month to date precipitation 1.84 3.55  
Year to date precipitation 22.67 21.61  
Sea Level Pressure  
Sea Level Pressure 29.82 in    
Wind  
Wind Speed 12 mph (NNW)    
Max Wind Speed 24 mph    
Max Gust Speed 29 mph    
Visibility 10 miles    
Events Rain    
T = Trace of Precipitation, MM = Missing Value Source: NWS Daily Summary

Daily Weather History Graph

Daily Weather History Graph

Search for Another Location

Airport or City:

Trip Planner

Search our weather history database for the weather conditions in past years. The results will help you decide how hot, cold, wet, or windy it might be!

Date:

Astronomy

Aug. 28, 2014 Rise Set
Actual Time 5:46 AM EDT 7:21 PM EDT
Civil Twilight 5:14 AM EDT 7:53 PM EDT
Nautical Twilight 4:35 AM EDT 8:31 PM EDT
Astronomical Twilight 3:53 AM EDT 9:14 PM EDT
Moon 8:50 AM EDT (8/28) 8:27 PM EDT (8/28)
Length of Visible Light 14h 38m
Length of Day
13h 34m
Waxing Crescent, 8% of the Moon is Illuminated
Aug 28
Waxing Crescent
Sep 2
First Quarter
Sep 8
Full
Sep 15
Last Quarter
Sep 24
New

Hourly Weather History & Observations

Time (EDT) Temp. Dew Point Humidity Pressure Visibility Wind Dir Wind Speed Gust Speed Precip Events Conditions
12:53 AM 57.0 °F 55.0 °F 93% 29.82 in 10.0 mi NW 8.1 mph - 0.03 in Rain Light Rain
1:53 AM 55.9 °F 55.0 °F 97% 29.80 in 10.0 mi NW 5.8 mph - 0.01 in   Overcast
2:53 AM 57.0 °F 55.0 °F 93% 29.79 in 10.0 mi NW 5.8 mph - N/A   Overcast
3:53 AM 55.9 °F 54.0 °F 93% 29.78 in 10.0 mi NW 8.1 mph - 0.00 in   Partly Cloudy
4:53 AM 55.9 °F 54.0 °F 93% 29.77 in 10.0 mi NW 6.9 mph - N/A   Mostly Cloudy
5:27 AM 55.9 °F 55.0 °F 97% 29.79 in 10.0 mi NW 5.8 mph - N/A   Overcast
5:51 AM 55.4 °F 53.6 °F 94% 29.78 in 10.0 mi NNW 5.8 mph - N/A   Overcast
5:53 AM 55.9 °F 54.0 °F 93% 29.78 in 10.0 mi NNW 5.8 mph - N/A   Overcast
6:28 AM 55.9 °F 55.0 °F 97% 29.79 in 10.0 mi NW 4.6 mph - N/A   Overcast
6:37 AM 55.9 °F 55.0 °F 97% 29.79 in 10.0 mi NW 5.8 mph - N/A   Overcast
6:53 AM 55.9 °F 55.0 °F 97% 29.78 in 10.0 mi NW 5.8 mph - N/A   Overcast
7:21 AM 57.0 °F 55.0 °F 93% 29.79 in 7.0 mi NW 8.1 mph - 0.01 in Rain Light Rain
7:53 AM 57.0 °F 55.0 °F 93% 29.78 in 10.0 mi NW 5.8 mph - 0.01 in   Overcast
8:04 AM 57.0 °F 55.0 °F 93% 29.79 in 10.0 mi WNW 5.8 mph - N/A   Overcast
8:53 AM 59.0 °F 55.9 °F 90% 29.78 in 10.0 mi WNW 8.1 mph - N/A   Overcast
9:40 AM 60.1 °F 55.9 °F 86% 29.78 in 10.0 mi NNW 10.4 mph - N/A   Overcast
9:51 AM 60.8 °F 55.4 °F 82% 29.78 in 10.0 mi NNW 12.7 mph 18.4 mph N/A   Overcast
9:53 AM 60.8 °F 55.4 °F 82% 29.78 in 10.0 mi NW 16.1 mph 20.7 mph N/A   Overcast
10:34 AM 60.1 °F 55.0 °F 83% 29.78 in 10.0 mi NNW 12.7 mph - 0.01 in   Mostly Cloudy
10:53 AM 60.8 °F 55.4 °F 82% 29.78 in 10.0 mi NW 9.2 mph - N/A   Overcast
11:53 AM 60.1 °F 53.1 °F 78% 29.77 in 10.0 mi NNW 11.5 mph - N/A   Overcast
12:29 PM 61.0 °F 52.0 °F 72% 29.76 in 10.0 mi NW 11.5 mph 21.9 mph N/A   Overcast
12:53 PM 60.1 °F 52.0 °F 75% 29.76 in 10.0 mi WNW 15.0 mph - N/A   Overcast
1:53 PM 60.1 °F 52.0 °F 75% 29.77 in 10.0 mi NNW 17.3 mph 21.9 mph N/A   Overcast
2:32 PM 60.1 °F 52.0 °F 75% 29.77 in 10.0 mi NW 17.3 mph 23.0 mph N/A   Overcast
2:53 PM 60.1 °F 53.1 °F 78% 29.77 in 10.0 mi NNW 23.0 mph 28.8 mph N/A   Overcast
3:41 PM 59.0 °F 54.0 °F 83% 29.78 in 10.0 mi NNW 13.8 mph 25.3 mph 0.00 in Rain Light Rain
3:53 PM 57.9 °F 53.1 °F 84% 29.78 in 10.0 mi NNW 17.3 mph 27.6 mph 0.00 in   Overcast
4:18 PM 57.9 °F 52.0 °F 81% 29.79 in 10.0 mi NNW 16.1 mph - N/A   Overcast
4:53 PM 57.0 °F 51.1 °F 81% 29.80 in 10.0 mi NNW 12.7 mph 21.9 mph N/A   Overcast
5:03 PM 57.0 °F 51.1 °F 81% 29.80 in 10.0 mi NNW 15.0 mph 25.3 mph N/A   Mostly Cloudy
5:16 PM 55.9 °F 50.0 °F 80% 29.81 in 10.0 mi North 17.3 mph 24.2 mph N/A   Mostly Cloudy
5:53 PM 55.0 °F 48.0 °F 77% 29.82 in 10.0 mi North 21.9 mph 28.8 mph N/A   Overcast
6:53 PM 53.1 °F 48.0 °F 83% 29.85 in 10.0 mi North 18.4 mph 25.3 mph N/A   Overcast
7:53 PM 52.0 °F 46.9 °F 83% 29.88 in 10.0 mi North 11.5 mph - N/A   Overcast
8:30 PM 51.1 °F 48.0 °F 89% 29.90 in 10.0 mi North 12.7 mph - 0.00 in Rain Light Rain
8:53 PM 50.0 °F 48.0 °F 93% 29.91 in 9.0 mi NNW 11.5 mph - 0.00 in Rain Light Rain
9:14 PM 50.0 °F 46.9 °F 89% 29.91 in 10.0 mi NNW 11.5 mph - 0.00 in   Overcast
9:48 PM 50.0 °F 46.4 °F 87% 29.93 in 10.0 mi North 12.7 mph 23.0 mph 0.00 in   Overcast
9:53 PM 50.0 °F 46.0 °F 86% 29.93 in 10.0 mi NNW 13.8 mph 19.6 mph 0.00 in   Overcast
10:09 PM 50.0 °F 46.4 °F 87% 29.94 in 10.0 mi North 11.5 mph - N/A   Overcast
10:53 PM 50.0 °F 46.0 °F 86% 29.96 in 10.0 mi North 11.5 mph - N/A   Overcast
11:39 PM 48.9 °F 46.0 °F 90% 29.97 in 10.0 mi North 6.9 mph - N/A   Overcast
11:46 PM 48.9 °F 46.0 °F 90% 29.98 in 10.0 mi North 8.1 mph - N/A   Overcast
11:53 PM 48.9 °F 46.0 °F 90% 29.98 in 10.0 mi North 6.9 mph - N/A   Overcast